Time,TemperatureF,DewpointF,PressureIn,WindDirection,WindDirectionDegrees,WindSpeedMPH,WindSpeedGustMPH,Humidity,HourlyPrecipIn,Conditions,Clouds,dailyrainin,SoftwareType,DateUTC
2013-04-03 00:52:00,47.0,30.0,-100.00,West,265,6.0,8.0,53,-99.99,,,-99.99,,2013-04-03 06:52:00,
2013-04-03 01:02:00,47.0,30.0,-100.00,West,265,6.0,8.0,53,-99.99,,,-99.99,,2013-04-03 07:02:00,
2013-04-03 01:12:00,47.0,30.0,-100.00,West,265,6.0,8.0,53,-99.99,,,-99.99,,2013-04-03 07:12:00,
2013-04-03 01:22:00,47.0,30.0,-100.00,West,265,6.0,8.0,53,-99.99,,,-99.99,,2013-04-03 07:22:00,
2013-04-03 04:53:00,40.0,25.0,-100.00,West,270,8.0,8.0,53,-99.99,,,0.00,,2013-04-03 10:53:00,
2013-04-03 05:02:00,40.0,25.0,-100.00,West,270,8.0,8.0,53,-99.99,,,0.00,,2013-04-03 11:02:00,
2013-04-03 05:53:00,46.0,27.0,-100.00,WSW,255,13.0,14.0,48,-99.99,,,0.00,,2013-04-03 11:53:00,
2013-04-03 06:02:00,46.0,27.0,-100.00,WSW,255,13.0,14.0,48,-99.99,,,0.00,,2013-04-03 12:02:00,
2013-04-03 06:12:00,46.0,27.0,-100.00,WSW,255,13.0,14.0,48,-99.99,,,0.00,,2013-04-03 12:12:00,
2013-04-03 06:22:00,46.0,27.0,-100.00,WSW,255,13.0,14.0,48,-99.99,,,0.00,,2013-04-03 12:22:00,
2013-04-03 06:52:00,44.0,29.0,-100.00,WSW,240,19.0,21.0,55,-99.99,,,0.00,,2013-04-03 12:52:00,
2013-04-03 07:02:00,44.0,29.0,-100.00,WSW,240,19.0,21.0,55,-99.99,,,0.00,,2013-04-03 13:02:00,
2013-04-03 07:12:00,44.0,29.0,-100.00,WSW,240,19.0,21.0,55,-99.99,,,0.00,,2013-04-03 13:12:00,
2013-04-03 07:22:00,44.0,29.0,-100.00,WSW,240,19.0,21.0,55,-99.99,,,0.00,,2013-04-03 13:22:00,
2013-04-03 07:52:00,40.0,29.0,-100.00,West,260,8.0,9.0,64,-99.99,,,0.00,,2013-04-03 13:52:00,
2013-04-03 08:02:00,40.0,29.0,-100.00,West,260,8.0,9.0,64,-99.99,,,0.00,,2013-04-03 14:02:00,
2013-04-03 08:12:00,40.0,29.0,-100.00,West,260,8.0,9.0,64,-99.99,,,0.00,,2013-04-03 14:12:00,
2013-04-03 08:22:00,40.0,29.0,-100.00,West,260,8.0,9.0,64,-99.99,,,0.00,,2013-04-03 14:22:00,
2013-04-03 08:52:00,45.0,32.0,-100.00,WNW,285,7.0,8.0,60,-99.99,,,0.00,,2013-04-03 14:52:00,
2013-04-03 09:02:00,45.0,32.0,-100.00,WNW,285,7.0,8.0,60,-99.99,,,0.00,,2013-04-03 15:02:00,
2013-04-03 09:12:00,45.0,32.0,-100.00,WNW,285,7.0,8.0,60,-99.99,,,0.00,,2013-04-03 15:12:00,
2013-04-03 09:22:00,45.0,32.0,-100.00,WNW,285,7.0,8.0,60,-99.99,,,0.00,,2013-04-03 15:22:00,
2013-04-03 09:23:00,52.0,32.0,-100.00,West,275,8.0,9.0,47,-99.99,,,0.00,,2013-04-03 15:23:00,
2013-04-03 09:53:00,52.0,32.0,-100.00,West,275,8.0,9.0,47,-99.99,,,0.00,,2013-04-03 15:53:00,
2013-04-03 10:03:00,52.0,32.0,-100.00,West,275,8.0,9.0,47,-99.99,,,0.00,,2013-04-03 16:03:00,
2013-04-03 10:12:00,52.0,32.0,-100.00,West,275,8.0,9.0,47,-99.99,,,0.00,,2013-04-03 16:12:00,
2013-04-03 10:52:00,54.0,31.0,-100.00,NW,310,13.0,16.0,42,-99.99,,,-99.99,,2013-04-03 16:52:00,
2013-04-03 11:02:00,54.0,31.0,-100.00,NW,310,13.0,16.0,42,-99.99,,,-99.99,,2013-04-03 17:02:00,
2013-04-03 11:13:00,54.0,31.0,-100.00,NW,310,13.0,16.0,42,-99.99,,,-99.99,,2013-04-03 17:13:00,
2013-04-03 11:22:00,54.0,31.0,-100.00,NW,310,13.0,16.0,42,-99.99,,,-99.99,,2013-04-03 17:22:00,
2013-04-03 11:53:00,44.0,30.0,-100.00,North,0,19.0,25.0,58,-99.99,,,-99.99,,2013-04-03 17:53:00,
2013-04-03 12:02:00,44.0,30.0,-100.00,North,0,19.0,25.0,58,-99.99,,,-99.99,,2013-04-03 18:02:00,
2013-04-03 12:52:00,47.0,32.0,-100.00,North,10,14.0,16.0,55,-99.99,,,0.00,,2013-04-03 18:52:00,
2013-04-03 13:02:00,47.0,32.0,-100.00,North,10,14.0,16.0,55,-99.99,,,0.00,,2013-04-03 19:02:00,
2013-04-03 13:12:00,47.0,32.0,-100.00,North,10,14.0,16.0,55,-99.99,,,0.00,,2013-04-03 19:12:00,
2013-04-03 13:22:00,47.0,32.0,-100.00,North,10,14.0,16.0,55,-99.99,,,0.00,,2013-04-03 19:22:00,
2013-04-03 13:52:00,46.0,31.0,-100.00,NNE,30,12.0,16.0,55,-99.99,,,0.00,,2013-04-03 19:52:00,
2013-04-03 14:02:00,46.0,31.0,-100.00,NNE,30,12.0,16.0,55,-99.99,,,0.00,,2013-04-03 20:02:00,
2013-04-03 14:12:00,46.0,31.0,-100.00,NNE,30,12.0,16.0,55,-99.99,,,0.00,,2013-04-03 20:12:00,
2013-04-03 14:22:00,46.0,31.0,-100.00,NNE,30,12.0,16.0,55,-99.99,,,0.00,,2013-04-03 20:22:00,
2013-04-03 14:53:00,47.0,31.0,-100.00,NNE,20,6.0,11.0,55,-99.99,,,0.00,,2013-04-03 20:53:00,
2013-04-03 15:02:00,47.0,31.0,-100.00,NNE,20,6.0,11.0,55,-99.99,,,0.00,,2013-04-03 21:02:00,
2013-04-03 15:12:00,47.0,31.0,-100.00,NNE,20,6.0,11.0,55,-99.99,,,0.00,,2013-04-03 21:12:00,
2013-04-03 15:22:00,47.0,31.0,-100.00,NNE,20,6.0,11.0,55,-99.99,,,0.00,,2013-04-03 21:22:00,
2013-04-03 15:52:00,47.0,31.0,-100.00,NW,315,9.0,11.0,53,-99.99,,,0.00,,2013-04-03 21:52:00,
2013-04-03 16:02:00,47.0,31.0,-100.00,NW,315,9.0,11.0,53,-99.99,,,0.00,,2013-04-03 22:02:00,
2013-04-03 16:12:00,47.0,31.0,-100.00,NW,315,9.0,11.0,53,-99.99,,,0.00,,2013-04-03 22:12:00,
2013-04-03 16:22:00,47.0,31.0,-100.00,NW,315,9.0,11.0,53,-99.99,,,0.00,,2013-04-03 22:22:00,
2013-04-03 16:52:00,51.0,33.0,-100.00,NNE,20,5.0,6.0,50,-99.99,,,0.00,,2013-04-03 22:52:00,
2013-04-03 17:02:00,51.0,33.0,-100.00,NNE,20,5.0,6.0,50,-99.99,,,0.00,,2013-04-03 23:02:00,
2013-04-03 17:12:00,51.0,33.0,-100.00,NNE,20,5.0,6.0,50,-99.99,,,0.00,,2013-04-03 23:12:00,
2013-04-03 17:22:00,51.0,33.0,-100.00,NNE,20,5.0,6.0,50,-99.99,,,0.00,,2013-04-03 23:22:00,
2013-04-03 17:54:00,54.0,34.0,-100.00,East,90,1.0,2.0,47,-99.99,,,0.00,,2013-04-03 23:54:00,
2013-04-03 18:02:00,54.0,34.0,-100.00,East,90,1.0,2.0,47,-99.99,,,0.00,,2013-04-04 00:02:00,
2013-04-03 18:12:00,54.0,34.0,-100.00,East,90,1.0,2.0,47,-99.99,,,0.00,,2013-04-04 00:12:00,
2013-04-03 18:22:00,54.0,34.0,-100.00,East,90,1.0,2.0,47,-99.99,,,0.00,,2013-04-04 00:22:00,
2013-04-03 18:52:00,53.0,34.0,-100.00,North,-999,0.0,0.0,47,-99.99,,,0.00,,2013-04-04 00:52:00,
2013-04-03 19:02:00,53.0,34.0,-100.00,North,-999,0.0,0.0,47,-99.99,,,0.00,,2013-04-04 01:02:00,
2013-04-03 19:11:00,53.0,34.0,-100.00,North,-999,0.0,0.0,47,-99.99,,,0.00,,2013-04-04 01:11:00,
2013-04-03 19:22:00,53.0,34.0,-100.00,North,-999,0.0,0.0,47,-99.99,,,0.00,,2013-04-04 01:22:00,
2013-04-03 19:52:00,49.0,32.0,-100.00,ENE,60,6.0,6.0,51,-99.99,,,0.00,,2013-04-04 01:52:00,
2013-04-03 20:02:00,49.0,32.0,-100.00,ENE,60,6.0,6.0,51,-99.99,,,0.00,,2013-04-04 02:02:00,
2013-04-03 20:12:00,49.0,32.0,-100.00,ENE,60,6.0,6.0,51,-99.99,,,0.00,,2013-04-04 02:12:00,
2013-04-03 20:22:00,49.0,32.0,-100.00,ENE,60,6.0,6.0,51,-99.99,,,0.00,,2013-04-04 02:22:00,
2013-04-03 21:02:00,43.0,30.0,-100.00,NE,50,3.0,4.0,58,-99.99,,,0.00,,2013-04-04 03:02:00,
2013-04-03 21:11:00,43.0,30.0,-100.00,NE,50,3.0,4.0,58,-99.99,,,0.00,,2013-04-04 03:11:00,
2013-04-03 21:22:00,43.0,30.0,-100.00,NE,50,3.0,4.0,58,-99.99,,,0.00,,2013-04-04 03:22:00,
2013-04-03 21:53:00,39.0,28.0,-100.00,West,275,6.0,6.0,65,-99.99,,,0.00,,2013-04-04 03:53:00,
2013-04-03 22:02:00,39.0,28.0,-100.00,West,275,6.0,6.0,65,-99.99,,,0.00,,2013-04-04 04:02:00,
2013-04-03 22:12:00,39.0,28.0,-100.00,West,275,6.0,6.0,65,-99.99,,,0.00,,2013-04-04 04:12:00,
2013-04-03 22:22:00,39.0,28.0,-100.00,West,275,6.0,6.0,65,-99.99,,,0.00,,2013-04-04 04:22:00,
2013-04-03 22:53:00,37.0,28.0,-100.00,WNW,300,8.0,9.0,70,-99.99,,,0.00,,2013-04-04 04:53:00,
2013-04-03 23:02:00,37.0,28.0,-100.00,WNW,300,8.0,9.0,70,-99.99,,,0.00,,2013-04-04 05:02:00,
2013-04-03 23:12:00,37.0,28.0,-100.00,WNW,300,8.0,9.0,70,-99.99,,,0.00,,2013-04-04 05:12:00,
2013-04-03 23:22:00,37.0,28.0,-100.00,WNW,300,8.0,9.0,70,-99.99,,,0.00,,2013-04-04 05:22:00,
2013-04-03 23:52:00,35.0,28.0,-100.00,NNW,335,5.0,6.0,78,-99.99,,,-99.99,,2013-04-04 05:52:00,